Time,TemperatureF,DewpointF,PressureIn,WindDirection,WindDirectionDegrees,WindSpeedMPH,WindSpeedGustMPH,Humidity,HourlyPrecipIn,Conditions,Clouds,dailyrainin,SoftwareType,DateUTC
2013-01-14 00:04:00,42.8,9.3,29.89,WNW,283,6.0,6.0,25,0.00,,,0.00,Wunderground v.1.15,2013-01-14 08:04:00,
2013-01-14 00:10:00,42.9,7.6,29.89,NW,323,6.0,6.0,23,0.00,,,0.00,Wunderground v.1.15,2013-01-14 08:10:00,
2013-01-14 00:16:00,43.1,9.6,29.89,WSW,249,5.0,5.0,25,0.00,,,0.00,Wunderground v.1.15,2013-01-14 08:16:00,
2013-01-14 00:22:00,42.5,10.0,29.89,WNW,298,3.0,5.0,26,0.00,,,0.00,Wunderground v.1.15,2013-01-14 08:22:00,
2013-01-14 00:28:00,42.2,9.7,29.89,SSW,213,3.0,4.0,26,0.00,,,0.00,Wunderground v.1.15,2013-01-14 08:28:00,
2013-01-14 00:34:00,41.8,11.0,29.89,West,269,2.0,4.0,28,0.00,,,0.00,Wunderground v.1.15,2013-01-14 08:34:00,
2013-01-14 00:44:00,41.9,9.5,29.90,WSW,245,3.0,5.0,26,0.00,,,0.00,Wunderground v.1.15,2013-01-14 08:44:00,
2013-01-14 00:50:00,42.5,9.1,29.90,SW,217,4.0,5.0,25,0.00,,,0.00,Wunderground v.1.15,2013-01-14 08:50:00,
2013-01-14 00:56:00,42.5,9.1,29.90,WNW,288,4.0,4.0,25,0.00,,,0.00,Wunderground v.1.15,2013-01-14 08:56:00,
2013-01-14 01:02:00,42.2,10.6,29.90,WNW,284,4.0,8.0,27,0.00,,,0.00,Wunderground v.1.15,2013-01-14 09:02:00,
2013-01-14 01:08:00,42.1,9.6,29.89,WSW,257,4.0,7.0,26,0.00,,,0.00,Wunderground v.1.15,2013-01-14 09:08:00,
2013-01-14 01:14:00,42.3,9.8,29.89,NW,305,5.0,8.0,26,0.00,,,0.00,Wunderground v.1.15,2013-01-14 09:14:00,
2013-01-14 01:20:00,42.1,9.6,29.90,SSW,200,4.0,5.0,26,0.00,,,0.00,Wunderground v.1.15,2013-01-14 09:20:00,
2013-01-14 01:26:00,42.1,9.6,29.90,West,259,5.0,6.0,26,0.00,,,0.00,Wunderground v.1.15,2013-01-14 09:26:00,
2013-01-14 01:32:00,42.2,8.8,29.90,West,260,5.0,6.0,25,0.00,,,0.00,Wunderground v.1.15,2013-01-14 09:32:00,
2013-01-14 01:38:00,42.3,8.9,29.90,WSW,244,4.0,4.0,25,0.00,,,0.00,Wunderground v.1.15,2013-01-14 09:38:00,
2013-01-14 01:44:00,42.6,10.1,29.90,WSW,257,4.0,5.0,26,0.00,,,0.00,Wunderground v.1.15,2013-01-14 09:44:00,
2013-01-14 01:50:00,42.2,8.8,29.90,WSW,242,4.0,5.0,25,0.00,,,0.00,Wunderground v.1.15,2013-01-14 09:50:00,
2013-01-14 01:56:00,42.1,9.6,29.91,WNW,296,2.0,2.0,26,0.00,,,0.00,Wunderground v.1.15,2013-01-14 09:56:00,
2013-01-14 02:02:00,41.9,9.5,29.91,WSW,258,3.0,3.0,26,0.00,,,0.00,Wunderground v.1.15,2013-01-14 10:02:00,
2013-01-14 02:08:00,41.6,10.0,29.92,NNE,16,2.0,3.0,27,0.00,,,0.00,Wunderground v.1.15,2013-01-14 10:08:00,
2013-01-14 02:14:00,40.6,10.0,29.92,WSW,248,1.0,3.0,28,0.00,,,0.00,Wunderground v.1.15,2013-01-14 10:14:00,
2013-01-14 02:20:00,40.1,11.1,29.92,WSW,248,0.0,1.0,30,0.00,,,0.00,Wunderground v.1.15,2013-01-14 10:20:00,
2013-01-14 02:26:00,39.2,11.0,29.92,West,260,0.0,0.0,31,0.00,,,0.00,Wunderground v.1.15,2013-01-14 10:26:00,
2013-01-14 02:32:00,38.3,13.0,29.92,West,260,0.0,0.0,35,0.00,,,0.00,Wunderground v.1.15,2013-01-14 10:32:00,
2013-01-14 02:38:00,37.5,14.8,29.92,North,9,0.0,0.0,39,0.00,,,0.00,Wunderground v.1.15,2013-01-14 10:38:00,
2013-01-14 02:44:00,36.0,13.4,29.92,North,9,0.0,0.0,39,0.00,,,0.00,Wunderground v.1.15,2013-01-14 10:44:00,
2013-01-14 02:50:00,34.9,16.2,29.92,ENE,62,0.0,1.0,46,0.00,,,0.00,Wunderground v.1.15,2013-01-14 10:50:00,
2013-01-14 02:56:00,33.8,18.0,29.93,WNW,285,0.0,1.0,52,0.00,,,0.00,Wunderground v.1.15,2013-01-14 10:56:00,
2013-01-14 03:02:00,32.7,16.5,29.93,WNW,285,0.0,1.0,51,0.00,,,0.00,Wunderground v.1.15,2013-01-14 11:02:00,
2013-01-14 03:08:00,32.7,16.5,29.93,SSE,153,0.0,0.0,51,0.00,,,0.00,Wunderground v.1.15,2013-01-14 11:08:00,
2013-01-14 03:14:00,32.7,17.0,29.92,SSE,153,0.0,0.0,52,0.00,,,0.00,Wunderground v.1.15,2013-01-14 11:14:00,
2013-01-14 03:20:00,33.4,16.7,29.92,SE,143,0.0,0.0,50,0.00,,,0.00,Wunderground v.1.15,2013-01-14 11:20:00,
2013-01-14 03:26:00,35.5,13.0,29.92,SE,126,1.0,3.0,39,0.00,,,0.00,Wunderground v.1.15,2013-01-14 11:26:00,
2013-01-14 03:32:00,39.6,10.7,29.92,SSE,147,3.0,5.0,30,0.00,,,0.00,Wunderground v.1.15,2013-01-14 11:32:00,
2013-01-14 03:38:00,40.6,10.8,29.91,SSE,156,3.0,4.0,29,0.00,,,0.00,Wunderground v.1.15,2013-01-14 11:38:00,
2013-01-14 03:44:00,40.3,11.3,29.91,SE,138,2.0,4.0,30,0.00,,,0.00,Wunderground v.1.15,2013-01-14 11:44:00,
2013-01-14 03:50:00,39.9,10.2,29.90,WSW,244,1.0,2.0,29,0.00,,,0.00,Wunderground v.1.15,2013-01-14 11:50:00,
2013-01-14 03:56:00,39.6,9.1,29.90,WSW,244,0.0,0.0,28,0.00,,,0.00,Wunderground v.1.15,2013-01-14 11:56:00,
2013-01-14 04:02:00,39.6,9.9,29.90,WSW,254,1.0,2.0,29,0.00,,,0.00,Wunderground v.1.15,2013-01-14 12:02:00,
2013-01-14 04:08:00,39.1,11.0,29.91,WSW,254,0.0,1.0,31,0.00,,,0.00,Wunderground v.1.15,2013-01-14 12:08:00,
2013-01-14 04:14:00,38.2,10.9,29.91,WSW,254,0.0,1.0,32,0.00,,,0.00,Wunderground v.1.15,2013-01-14 12:14:00,
2013-01-14 04:20:00,37.5,12.3,29.91,WSW,254,0.0,1.0,35,0.00,,,0.00,Wunderground v.1.15,2013-01-14 12:20:00,
2013-01-14 04:26:00,36.9,11.1,29.92,WSW,254,0.0,0.0,34,0.00,,,0.00,Wunderground v.1.15,2013-01-14 12:26:00,
2013-01-14 04:32:00,36.3,12.5,29.91,SE,140,0.0,0.0,37,0.00,,,0.00,Wunderground v.1.15,2013-01-14 12:32:00,
2013-01-14 04:38:00,38.0,10.7,29.91,South,184,0.0,2.0,32,0.00,,,0.00,Wunderground v.1.15,2013-01-14 12:38:00,
2013-01-14 04:44:00,38.0,13.4,29.91,South,171,1.0,2.0,36,0.00,,,0.00,Wunderground v.1.15,2013-01-14 12:44:00,
2013-01-14 04:50:00,37.8,13.2,29.92,South,170,0.0,1.0,36,0.00,,,0.00,Wunderground v.1.15,2013-01-14 12:50:00,
2013-01-14 04:56:00,37.8,11.9,29.92,SE,145,0.0,0.0,34,0.00,,,0.00,Wunderground v.1.15,2013-01-14 12:56:00,
2013-01-14 05:02:00,38.5,8.2,29.92,SSW,210,0.0,5.0,28,0.00,,,0.00,Wunderground v.1.15,2013-01-14 13:02:00,
2013-01-14 05:08:00,39.3,12.6,29.91,SSW,197,2.0,3.0,33,0.00,,,0.00,Wunderground v.1.15,2013-01-14 13:08:00,
2013-01-14 05:14:00,41.1,6.0,29.91,WNW,295,3.0,7.0,23,0.00,,,0.00,Wunderground v.1.15,2013-01-14 13:14:00,
2013-01-14 05:20:00,42.9,6.6,29.92,WNW,283,4.0,7.0,22,0.00,,,0.00,Wunderground v.1.15,2013-01-14 13:20:00,
2013-01-14 05:26:00,43.3,6.9,29.92,NW,312,3.0,3.0,22,0.00,,,0.00,Wunderground v.1.15,2013-01-14 13:26:00,
2013-01-14 05:32:00,43.2,7.8,29.92,NW,312,1.0,3.0,23,0.00,,,0.00,Wunderground v.1.15,2013-01-14 13:32:00,
2013-01-14 05:38:00,42.5,7.2,29.93,WSW,254,0.0,2.0,23,0.00,,,0.00,Wunderground v.1.15,2013-01-14 13:38:00,
2013-01-14 05:44:00,41.6,5.5,29.93,SSW,207,1.0,2.0,22,0.00,,,0.00,Wunderground v.1.15,2013-01-14 13:44:00,
2013-01-14 05:50:00,41.5,9.1,29.93,SSW,207,1.0,1.0,26,0.00,,,0.00,Wunderground v.1.15,2013-01-14 13:50:00,
2013-01-14 05:56:00,41.1,10.4,29.93,SE,141,1.0,1.0,28,0.00,,,0.00,Wunderground v.1.15,2013-01-14 13:56:00,
2013-01-14 06:02:00,40.1,8.7,29.94,South,182,1.0,2.0,27,0.00,,,0.00,Wunderground v.1.15,2013-01-14 14:02:00,
2013-01-14 06:08:00,40.2,9.6,29.95,SE,144,1.0,3.0,28,0.00,,,0.00,Wunderground v.1.15,2013-01-14 14:08:00,
2013-01-14 06:14:00,39.8,10.1,29.96,SE,142,1.0,3.0,29,0.00,,,0.00,Wunderground v.1.15,2013-01-14 14:14:00,
2013-01-14 06:20:00,39.1,9.5,29.96,SE,136,2.0,3.0,29,0.00,,,0.00,Wunderground v.1.15,2013-01-14 14:20:00,
2013-01-14 06:26:00,38.6,12.6,29.96,South,180,1.0,1.0,34,0.00,,,0.00,Wunderground v.1.15,2013-01-14 14:26:00,
2013-01-14 06:32:00,39.2,9.6,29.97,SE,139,1.0,2.0,29,0.00,,,0.00,Wunderground v.1.15,2013-01-14 14:32:00,
2013-01-14 06:38:00,38.8,12.1,29.97,SE,139,1.0,1.0,33,0.00,,,0.00,Wunderground v.1.15,2013-01-14 14:38:00,
2013-01-14 06:44:00,37.8,11.2,29.97,SE,139,0.0,1.0,33,0.00,,,0.00,Wunderground v.1.15,2013-01-14 14:44:00,
2013-01-14 06:50:00,37.2,12.7,29.97,SE,139,0.0,0.0,36,0.00,,,0.00,Wunderground v.1.15,2013-01-14 14:50:00,
2013-01-14 06:56:00,36.6,12.7,29.97,SE,126,0.0,1.0,37,0.00,,,0.00,Wunderground v.1.15,2013-01-14 14:56:00,
2013-01-14 07:02:00,36.0,12.2,29.98,SE,126,0.0,1.0,37,0.00,,,0.00,Wunderground v.1.15,2013-01-14 15:02:00,
2013-01-14 07:08:00,35.2,12.1,29.99,NNE,14,0.0,1.0,38,0.00,,,0.00,Wunderground v.1.15,2013-01-14 15:08:00,
2013-01-14 07:14:00,34.6,14.9,29.98,NNE,14,0.0,1.0,44,0.00,,,0.00,Wunderground v.1.15,2013-01-14 15:14:00,
2013-01-14 07:20:00,33.4,14.8,29.99,NW,311,1.0,1.0,46,0.00,,,0.00,Wunderground v.1.15,2013-01-14 15:20:00,
2013-01-14 07:26:00,33.1,17.4,29.99,NE,46,1.0,1.0,52,0.00,,,0.00,Wunderground v.1.15,2013-01-14 15:26:00,
2013-01-14 07:32:00,32.4,16.3,29.99,NW,309,0.0,1.0,51,0.00,,,0.00,Wunderground v.1.15,2013-01-14 15:32:00,
2013-01-14 07:38:00,32.4,14.4,29.99,WSW,252,1.0,1.0,47,0.00,,,0.00,Wunderground v.1.15,2013-01-14 15:38:00,
2013-01-14 07:44:00,32.4,13.9,30.00,WSW,251,0.0,1.0,46,0.00,,,0.00,Wunderground v.1.15,2013-01-14 15:44:00,
2013-01-14 07:50:00,32.4,15.3,30.01,WSW,252,1.0,3.0,49,0.00,,,0.00,Wunderground v.1.15,2013-01-14 15:50:00,
2013-01-14 07:56:00,32.2,15.6,30.00,SW,232,1.0,1.0,50,0.00,,,0.00,Wunderground v.1.15,2013-01-14 15:56:00,
2013-01-14 08:02:00,32.5,16.4,30.00,North,5,1.0,1.0,51,0.00,,,0.00,Wunderground v.1.15,2013-01-14 16:02:00,
2013-01-14 08:08:00,32.2,17.4,30.00,North,5,0.0,0.0,54,0.00,,,0.00,Wunderground v.1.15,2013-01-14 16:08:00,
2013-01-14 08:14:00,32.7,18.7,30.01,North,5,0.0,0.0,56,0.00,,,0.00,Wunderground v.1.15,2013-01-14 16:14:00,
2013-01-14 08:20:00,33.7,19.2,30.01,SW,227,0.0,0.0,55,0.00,,,0.00,Wunderground v.1.15,2013-01-14 16:20:00,
2013-01-14 08:26:00,34.3,18.9,30.01,SW,227,0.0,0.0,53,0.00,,,0.00,Wunderground v.1.15,2013-01-14 16:26:00,
2013-01-14 08:32:00,34.7,18.9,30.02,WSW,257,1.0,3.0,52,0.00,,,0.00,Wunderground v.1.15,2013-01-14 16:32:00,
2013-01-14 08:38:00,35.5,19.6,30.02,WSW,257,1.0,1.0,52,0.00,,,0.00,Wunderground v.1.15,2013-01-14 16:38:00,
2013-01-14 08:44:00,36.0,20.1,30.02,WSW,257,0.0,1.0,52,0.00,,,0.00,Wunderground v.1.15,2013-01-14 16:44:00,
2013-01-14 08:50:00,36.8,21.3,30.02,WSW,257,0.0,0.0,53,0.00,,,0.00,Wunderground v.1.15,2013-01-14 16:50:00,
2013-01-14 08:56:00,37.0,21.0,30.02,WNW,300,0.0,0.0,52,0.00,,,0.00,Wunderground v.1.15,2013-01-14 16:56:00,
2013-01-14 09:02:00,37.3,19.4,30.03,West,273,1.0,4.0,48,0.00,,,0.00,Wunderground v.1.15,2013-01-14 17:02:00,
2013-01-14 09:08:00,37.6,20.1,30.03,NW,319,1.0,1.0,49,0.00,,,0.00,Wunderground v.1.15,2013-01-14 17:08:00,
2013-01-14 09:14:00,38.0,20.5,30.03,WNW,287,0.0,1.0,49,0.00,,,0.00,Wunderground v.1.15,2013-01-14 17:14:00,
2013-01-14 09:20:00,38.5,19.5,30.03,WNW,291,2.0,5.0,46,0.00,,,0.00,Wunderground v.1.15,2013-01-14 17:20:00,
2013-01-14 09:26:00,39.1,20.0,30.03,NW,308,2.0,2.0,46,0.00,,,0.00,Wunderground v.1.15,2013-01-14 17:26:00,
2013-01-14 09:32:00,39.5,19.9,30.03,West,264,2.0,4.0,45,0.00,,,0.00,Wunderground v.1.15,2013-01-14 17:32:00,
2013-01-14 09:38:00,39.9,20.8,30.03,NNE,27,2.0,2.0,46,0.00,,,0.00,Wunderground v.1.15,2013-01-14 17:38:00,
2013-01-14 09:44:00,40.5,20.8,30.03,WNW,298,2.0,4.0,45,0.00,,,0.00,Wunderground v.1.15,2013-01-14 17:44:00,
2013-01-14 09:50:00,41.1,19.2,30.03,WNW,297,3.0,6.0,41,0.00,,,0.00,Wunderground v.1.15,2013-01-14 17:50:00,
2013-01-14 09:56:00,41.6,17.8,30.03,WNW,298,3.0,4.0,38,0.00,,,0.00,Wunderground v.1.15,2013-01-14 17:56:00,
2013-01-14 10:02:00,42.1,18.3,30.03,SW,234,3.0,4.0,38,0.00,,,0.00,Wunderground v.1.15,2013-01-14 18:02:00,
2013-01-14 10:08:00,42.5,18.0,30.04,WSW,250,1.0,2.0,37,0.00,,,0.00,Wunderground v.1.15,2013-01-14 18:08:00,
2013-01-14 10:14:00,42.9,18.4,30.04,WNW,298,3.0,6.0,37,0.00,,,0.00,Wunderground v.1.15,2013-01-14 18:14:00,
2013-01-14 10:20:00,43.6,19.6,30.04,WNW,284,3.0,6.0,38,0.00,,,0.00,Wunderground v.1.15,2013-01-14 18:20:00,
2013-01-14 10:26:00,44.1,20.1,30.04,WNW,283,3.0,3.0,38,0.00,,,0.00,Wunderground v.1.15,2013-01-14 18:26:00,
2013-01-14 10:32:00,44.2,18.2,30.04,West,269,3.0,5.0,35,0.00,,,0.00,Wunderground v.1.15,2013-01-14 18:32:00,
2013-01-14 10:38:00,44.3,19.6,30.04,WSW,253,3.0,3.0,37,0.00,,,0.00,Wunderground v.1.15,2013-01-14 18:38:00,
2013-01-14 10:44:00,44.8,20.1,30.04,West,269,2.0,4.0,37,0.00,,,0.00,Wunderground v.1.15,2013-01-14 18:44:00,
2013-01-14 10:50:00,45.2,20.4,30.04,WNW,291,2.0,2.0,37,0.00,,,0.00,Wunderground v.1.15,2013-01-14 18:50:00,
2013-01-14 10:56:00,45.7,22.1,30.04,WNW,294,2.0,2.0,39,0.00,,,0.00,Wunderground v.1.15,2013-01-14 18:56:00,
2013-01-14 11:02:00,46.1,20.6,30.03,WNW,292,2.0,3.0,36,0.00,,,0.00,Wunderground v.1.15,2013-01-14 19:02:00,
2013-01-14 11:08:00,47.1,21.5,30.03,West,269,1.0,2.0,36,0.00,,,0.00,Wunderground v.1.15,2013-01-14 19:08:00,
2013-01-14 11:14:00,47.4,18.2,30.03,WSW,255,2.0,3.0,31,0.00,,,0.00,Wunderground v.1.15,2013-01-14 19:14:00,
2013-01-14 11:20:00,47.6,19.2,30.03,WSW,253,2.0,3.0,32,0.00,,,0.00,Wunderground v.1.15,2013-01-14 19:20:00,
2013-01-14 11:26:00,48.3,19.8,30.03,West,265,1.0,7.0,32,0.00,,,0.00,Wunderground v.1.15,2013-01-14 19:26:00,
2013-01-14 11:32:00,48.5,19.9,30.02,West,276,3.0,7.0,32,0.00,,,0.00,Wunderground v.1.15,2013-01-14 19:32:00,
2013-01-14 11:38:00,48.6,18.5,30.02,West,275,5.0,5.0,30,0.00,,,0.00,Wunderground v.1.15,2013-01-14 19:38:00,
2013-01-14 11:44:00,48.6,19.3,30.01,West,277,4.0,5.0,31,0.00,,,0.00,Wunderground v.1.15,2013-01-14 19:44:00,
2013-01-14 11:50:00,49.4,20.0,30.01,WNW,292,3.0,8.0,31,0.00,,,0.00,Wunderground v.1.15,2013-01-14 19:50:00,
2013-01-14 11:56:00,49.6,18.6,30.00,WNW,283,3.0,3.0,29,0.00,,,0.00,Wunderground v.1.15,2013-01-14 19:56:00,
2013-01-14 12:02:00,50.2,19.1,30.00,WNW,293,3.0,5.0,29,0.00,,,0.00,Wunderground v.1.15,2013-01-14 20:02:00,
2013-01-14 12:08:00,50.4,17.6,30.00,West,263,4.0,6.0,27,0.00,,,0.00,Wunderground v.1.15,2013-01-14 20:08:00,
2013-01-14 12:14:00,50.8,19.6,29.99,NW,309,3.0,7.0,29,0.00,,,0.00,Wunderground v.1.15,2013-01-14 20:14:00,
2013-01-14 12:20:00,52.0,21.5,29.99,West,272,1.0,4.0,30,0.00,,,0.00,Wunderground v.1.15,2013-01-14 20:20:00,
2013-01-14 12:26:00,52.2,20.9,29.99,North,360,2.0,2.0,29,0.00,,,0.00,Wunderground v.1.15,2013-01-14 20:26:00,
2013-01-14 12:32:00,52.8,21.4,29.99,NNE,24,2.0,2.0,29,0.00,,,0.00,Wunderground v.1.15,2013-01-14 20:32:00,
2013-01-14 12:38:00,52.8,22.2,29.99,WNW,290,2.0,3.0,30,0.00,,,0.00,Wunderground v.1.15,2013-01-14 20:38:00,
2013-01-14 12:44:00,51.9,18.0,29.99,WNW,284,4.0,5.0,26,0.00,,,0.00,Wunderground v.1.15,2013-01-14 20:44:00,
2013-01-14 12:50:00,51.3,21.6,29.99,NW,320,5.0,10.0,31,0.00,,,0.00,Wunderground v.1.15,2013-01-14 20:50:00,
2013-01-14 12:56:00,51.4,19.3,29.99,North,355,4.0,4.0,28,0.00,,,0.00,Wunderground v.1.15,2013-01-14 20:56:00,
2013-01-14 13:02:00,52.0,19.0,29.99,NW,309,2.0,6.0,27,0.00,,,0.00,Wunderground v.1.15,2013-01-14 21:02:00,
2013-01-14 13:08:00,51.4,17.6,29.99,WNW,290,4.0,4.0,26,0.00,,,0.00,Wunderground v.1.15,2013-01-14 21:08:00,
2013-01-14 13:14:00,51.0,19.0,29.99,West,281,5.0,6.0,28,0.00,,,0.00,Wunderground v.1.15,2013-01-14 21:14:00,
2013-01-14 13:20:00,51.6,21.1,29.98,North,5,3.0,4.0,30,0.00,,,0.00,Wunderground v.1.15,2013-01-14 21:20:00,
2013-01-14 13:26:00,52.3,20.9,29.99,WNW,296,2.0,2.0,29,0.00,,,0.00,Wunderground v.1.15,2013-01-14 21:26:00,
2013-01-14 13:32:00,52.6,19.5,29.99,West,265,3.0,3.0,27,0.00,,,0.00,Wunderground v.1.15,2013-01-14 21:32:00,
2013-01-14 13:38:00,52.9,20.6,29.99,WNW,300,2.0,3.0,28,0.00,,,0.00,Wunderground v.1.15,2013-01-14 21:38:00,
2013-01-14 13:44:00,52.9,19.8,29.99,NNW,348,2.0,3.0,27,0.00,,,0.00,Wunderground v.1.15,2013-01-14 21:44:00,
2013-01-14 13:50:00,52.6,21.2,29.99,West,276,3.0,5.0,29,0.00,,,0.00,Wunderground v.1.15,2013-01-14 21:50:00,
2013-01-14 13:56:00,52.3,21.7,29.99,WNW,290,4.0,6.0,30,0.00,,,0.00,Wunderground v.1.15,2013-01-14 21:56:00,
2013-01-14 14:02:00,52.2,22.4,29.99,SW,225,4.0,6.0,31,0.00,,,0.00,Wunderground v.1.15,2013-01-14 22:02:00,
2013-01-14 14:08:00,52.8,21.4,29.99,ENE,67,3.0,4.0,29,0.00,,,0.00,Wunderground v.1.15,2013-01-14 22:08:00,
2013-01-14 14:14:00,53.6,20.4,29.99,WSW,253,1.0,4.0,27,0.00,,,0.00,Wunderground v.1.15,2013-01-14 22:14:00,
2013-01-14 14:20:00,53.1,21.6,29.99,North,9,2.0,5.0,29,0.00,,,0.00,Wunderground v.1.15,2013-01-14 22:20:00,
2013-01-14 14:26:00,53.2,20.9,29.99,NNE,24,3.0,3.0,28,0.00,,,0.00,Wunderground v.1.15,2013-01-14 22:26:00,
2013-01-14 14:32:00,53.2,23.3,30.00,WNW,286,3.0,5.0,31,0.00,,,0.00,Wunderground v.1.15,2013-01-14 22:32:00,
2013-01-14 14:38:00,53.3,21.0,30.00,WNW,286,3.0,4.0,28,0.00,,,0.00,Wunderground v.1.15,2013-01-14 22:38:00,
2013-01-14 14:44:00,53.8,21.4,30.00,West,279,2.0,4.0,28,0.00,,,0.00,Wunderground v.1.15,2013-01-14 22:44:00,
2013-01-14 14:50:00,53.6,19.5,30.00,WNW,290,3.0,4.0,26,0.00,,,0.00,Wunderground v.1.15,2013-01-14 22:50:00,
2013-01-14 14:56:00,53.6,19.5,30.00,WNW,287,3.0,3.0,26,0.00,,,0.00,Wunderground v.1.15,2013-01-14 22:56:00,
2013-01-14 15:02:00,54.2,20.9,30.00,NNE,18,1.0,3.0,27,0.00,,,0.00,Wunderground v.1.15,2013-01-14 23:02:00,
2013-01-14 15:08:00,54.7,20.4,30.01,NNE,20,0.0,0.0,26,0.00,,,0.00,Wunderground v.1.15,2013-01-14 23:08:00,
2013-01-14 15:14:00,54.8,21.4,30.01,WSW,254,1.0,3.0,27,0.00,,,0.00,Wunderground v.1.15,2013-01-14 23:14:00,
2013-01-14 15:20:00,54.2,21.8,30.01,WSW,257,2.0,2.0,28,0.00,,,0.00,Wunderground v.1.15,2013-01-14 23:20:00,
2013-01-14 15:26:00,54.4,21.9,30.00,NW,309,2.0,2.0,28,0.00,,,0.00,Wunderground v.1.15,2013-01-14 23:26:00,
2013-01-14 15:32:00,54.5,21.2,30.00,SW,232,2.0,3.0,27,0.00,,,0.00,Wunderground v.1.15,2013-01-14 23:32:00,
2013-01-14 15:38:00,54.4,21.9,30.00,WNW,292,2.0,3.0,28,0.00,,,0.00,Wunderground v.1.15,2013-01-14 23:38:00,
2013-01-14 15:44:00,54.4,21.1,30.00,West,271,1.0,3.0,27,0.00,,,0.00,Wunderground v.1.15,2013-01-14 23:44:00,
2013-01-14 15:50:00,54.2,20.9,30.00,WNW,298,1.0,3.0,27,0.00,,,0.00,Wunderground v.1.15,2013-01-14 23:50:00,
2013-01-14 15:56:00,54.4,22.8,30.00,West,268,1.0,2.0,29,0.00,,,0.00,Wunderground v.1.15,2013-01-14 23:56:00,
2013-01-14 16:02:00,53.9,24.7,30.01,West,268,2.0,2.0,32,0.00,,,0.00,Wunderground v.1.15,2013-01-15 00:02:00,
2013-01-14 16:08:00,53.9,23.9,30.00,West,268,1.0,1.0,31,0.00,,,0.00,Wunderground v.1.15,2013-01-15 00:08:00,
2013-01-14 16:14:00,53.5,24.3,30.00,SW,224,0.0,1.0,32,0.00,,,0.00,Wunderground v.1.15,2013-01-15 00:14:00,
2013-01-14 16:20:00,53.1,24.0,30.00,SW,224,0.0,0.0,32,0.00,,,0.00,Wunderground v.1.15,2013-01-15 00:20:00,
2013-01-14 16:26:00,52.5,24.9,30.00,SW,224,0.0,0.0,34,0.00,,,0.00,Wunderground v.1.15,2013-01-15 00:26:00,
2013-01-14 16:32:00,51.6,26.8,30.01,SW,224,0.0,0.0,38,0.00,,,0.00,Wunderground v.1.15,2013-01-15 00:32:00,
2013-01-14 16:38:00,49.8,28.2,30.00,SW,224,0.0,0.0,43,0.00,,,0.00,Wunderground v.1.15,2013-01-15 00:38:00,
2013-01-14 16:44:00,47.7,27.9,30.00,SW,224,0.0,0.0,46,0.00,,,0.00,Wunderground v.1.15,2013-01-15 00:44:00,
2013-01-14 16:50:00,46.5,29.3,30.01,SW,224,0.0,0.0,51,0.00,,,0.00,Wunderground v.1.15,2013-01-15 00:50:00,
2013-01-14 16:56:00,45.8,28.2,30.01,SW,224,0.0,0.0,50,0.00,,,0.00,Wunderground v.1.15,2013-01-15 00:56:00,
2013-01-14 17:02:00,45.4,29.3,30.01,SW,224,0.0,0.0,53,0.00,,,0.00,Wunderground v.1.15,2013-01-15 01:02:00,
2013-01-14 17:08:00,44.6,28.5,30.01,SW,224,0.0,0.0,53,0.00,,,0.00,Wunderground v.1.15,2013-01-15 01:08:00,
2013-01-14 17:14:00,44.1,29.4,30.01,SW,224,0.0,0.0,56,0.00,,,0.00,Wunderground v.1.15,2013-01-15 01:14:00,
2013-01-14 17:20:00,43.3,29.5,30.00,SW,224,0.0,0.0,58,0.00,,,0.00,Wunderground v.1.15,2013-01-15 01:20:00,
2013-01-14 17:26:00,42.6,28.0,30.00,SW,224,0.0,0.0,56,0.00,,,0.00,Wunderground v.1.15,2013-01-15 01:26:00,
2013-01-14 17:32:00,42.1,28.8,30.00,SW,224,0.0,0.0,59,0.00,,,0.00,Wunderground v.1.15,2013-01-15 01:32:00,
2013-01-14 17:38:00,41.5,29.0,30.01,SW,224,0.0,0.0,61,0.00,,,0.00,Wunderground v.1.15,2013-01-15 01:38:00,
2013-01-14 17:44:00,40.8,28.8,30.01,SW,224,0.0,0.0,62,0.00,,,0.00,Wunderground v.1.15,2013-01-15 01:44:00,
2013-01-14 17:50:00,40.1,27.7,30.01,SW,224,0.0,0.0,61,0.00,,,0.00,Wunderground v.1.15,2013-01-15 01:50:00,
2013-01-14 17:56:00,39.6,28.0,30.01,SW,224,0.0,0.0,63,0.00,,,0.00,Wunderground v.1.15,2013-01-15 01:56:00,
2013-01-14 18:02:00,39.1,29.1,30.01,NNE,30,0.0,0.0,67,0.00,,,0.00,Wunderground v.1.15,2013-01-15 02:02:00,
2013-01-14 18:08:00,38.5,28.9,30.01,NNE,30,0.0,0.0,68,0.00,,,0.00,Wunderground v.1.15,2013-01-15 02:08:00,
2013-01-14 18:14:00,38.0,28.4,30.01,NNE,30,0.0,0.0,68,0.00,,,0.00,Wunderground v.1.15,2013-01-15 02:14:00,
2013-01-14 18:20:00,37.9,29.0,30.01,NNE,30,0.0,0.0,70,0.00,,,0.00,Wunderground v.1.15,2013-01-15 02:20:00,
2013-01-14 18:26:00,37.9,29.0,30.01,NNE,30,0.0,0.0,70,0.00,,,0.00,Wunderground v.1.15,2013-01-15 02:26:00,
2013-01-14 18:32:00,37.6,29.0,30.01,NNE,30,0.0,0.0,71,0.00,,,0.00,Wunderground v.1.15,2013-01-15 02:32:00,
2013-01-14 18:38:00,37.2,28.7,30.01,NNE,30,0.0,0.0,71,0.00,,,0.00,Wunderground v.1.15,2013-01-15 02:38:00,
2013-01-14 18:44:00,36.9,28.7,30.01,NNE,30,0.0,0.0,72,0.00,,,0.00,Wunderground v.1.15,2013-01-15 02:44:00,
2013-01-14 18:50:00,36.8,28.6,30.01,NNE,30,0.0,0.0,72,0.00,,,0.00,Wunderground v.1.15,2013-01-15 02:50:00,
2013-01-14 18:56:00,36.5,28.3,30.01,NNE,30,0.0,0.0,72,0.00,,,0.00,Wunderground v.1.15,2013-01-15 02:56:00,
2013-01-14 19:02:00,36.0,28.2,30.01,NNE,30,0.0,0.0,73,0.00,,,0.00,Wunderground v.1.15,2013-01-15 03:02:00,
2013-01-14 19:08:00,35.6,28.5,30.02,NNE,30,0.0,0.0,75,0.00,,,0.00,Wunderground v.1.15,2013-01-15 03:08:00,
2013-01-14 19:14:00,35.2,28.4,30.02,NNE,30,0.0,0.0,76,0.00,,,0.00,Wunderground v.1.15,2013-01-15 03:14:00,
2013-01-14 19:20:00,34.9,28.4,30.02,NNE,30,0.0,0.0,77,0.00,,,0.00,Wunderground v.1.15,2013-01-15 03:20:00,
2013-01-14 19:26:00,34.6,28.1,30.02,NNE,30,0.0,0.0,77,0.00,,,0.00,Wunderground v.1.15,2013-01-15 03:26:00,
2013-01-14 19:32:00,34.3,28.2,30.02,NNE,30,0.0,0.0,78,0.00,,,0.00,Wunderground v.1.15,2013-01-15 03:32:00,
2013-01-14 19:38:00,34.1,28.0,30.02,NNE,30,0.0,0.0,78,0.00,,,0.00,Wunderground v.1.15,2013-01-15 03:38:00,
2013-01-14 19:44:00,34.0,27.9,30.02,NNE,30,0.0,0.0,78,0.00,,,0.00,Wunderground v.1.15,2013-01-15 03:44:00,
2013-01-14 19:50:00,34.0,28.2,30.02,NNE,30,0.0,0.0,79,0.00,,,0.00,Wunderground v.1.15,2013-01-15 03:50:00,
2013-01-14 19:56:00,33.5,27.7,30.02,NNE,30,0.0,0.0,79,0.00,,,0.00,Wunderground v.1.15,2013-01-15 03:56:00,
2013-01-14 20:02:00,33.1,27.9,30.02,NNE,30,0.0,0.0,81,0.00,,,0.00,Wunderground v.1.15,2013-01-15 04:02:00,
2013-01-14 20:08:00,32.8,27.9,30.02,NNE,30,0.0,0.0,82,0.00,,,0.00,Wunderground v.1.15,2013-01-15 04:08:00,
2013-01-14 20:14:00,32.7,28.1,30.02,NNE,30,0.0,0.0,83,0.00,,,0.00,Wunderground v.1.15,2013-01-15 04:14:00,
2013-01-14 20:16:00,32.1,27.8,30.02,NNE,30,0.0,0.0,84,0.00,,,0.00,Wunderground v.1.15,2013-01-15 04:16:00,
2013-01-14 20:18:00,32.1,27.8,30.02,NNE,30,0.0,0.0,84,0.00,,,0.00,Wunderground v.1.15,2013-01-15 04:18:00,
2013-01-14 20:20:00,32.7,28.1,30.02,NNE,30,0.0,0.0,83,0.00,,,0.00,Wunderground v.1.15,2013-01-15 04:20:00,
2013-01-14 20:22:00,31.9,27.6,30.02,NNE,30,0.0,0.0,84,0.00,,,0.00,Wunderground v.1.15,2013-01-15 04:22:00,
2013-01-14 20:24:00,31.9,27.6,30.02,NNE,30,0.0,0.0,84,0.00,,,0.00,Wunderground v.1.15,2013-01-15 04:24:00,
2013-01-14 20:26:00,32.5,27.9,30.02,NNE,30,0.0,0.0,83,0.00,,,0.00,Wunderground v.1.15,2013-01-15 04:26:00,
2013-01-14 20:28:00,31.8,27.5,30.02,NNE,30,0.0,0.0,84,0.00,,,0.00,Wunderground v.1.15,2013-01-15 04:28:00,
2013-01-14 20:30:00,31.6,27.3,30.02,NNE,30,0.0,0.0,84,0.00,,,0.00,Wunderground v.1.15,2013-01-15 04:30:00,
2013-01-14 20:32:00,32.4,27.8,30.02,NNE,30,0.0,0.0,83,0.00,,,0.00,Wunderground v.1.15,2013-01-15 04:32:00,
2013-01-14 20:34:00,31.6,27.6,30.02,NNE,30,0.0,0.0,85,0.00,,,0.00,Wunderground v.1.15,2013-01-15 04:34:00,
2013-01-14 20:36:00,31.6,27.6,30.02,NNE,30,0.0,0.0,85,0.00,,,0.00,Wunderground v.1.15,2013-01-15 04:36:00,
2013-01-14 20:38:00,32.2,27.6,30.02,NNE,30,0.0,0.0,83,0.00,,,0.00,Wunderground v.1.15,2013-01-15 04:38:00,
2013-01-14 20:40:00,31.5,27.5,30.02,NNE,30,0.0,0.0,85,0.00,,,0.00,Wunderground v.1.15,2013-01-15 04:40:00,
2013-01-14 20:42:00,31.5,27.5,30.02,NNE,30,0.0,0.0,85,0.00,,,0.00,Wunderground v.1.15,2013-01-15 04:42:00,
2013-01-14 20:44:00,32.1,27.5,30.02,NNE,30,0.0,0.0,83,0.00,,,0.00,Wunderground v.1.15,2013-01-15 04:44:00,
2013-01-14 20:46:00,31.5,27.5,30.02,NNE,30,0.0,0.0,85,0.00,,,0.00,Wunderground v.1.15,2013-01-15 04:46:00,
2013-01-14 20:48:00,31.3,27.3,30.02,NNE,30,0.0,0.0,85,0.00,,,0.00,Wunderground v.1.15,2013-01-15 04:48:00,
2013-01-14 20:50:00,31.9,27.6,30.02,NNE,30,0.0,0.0,84,0.00,,,0.00,Wunderground v.1.15,2013-01-15 04:50:00,
2013-01-14 20:52:00,31.2,27.2,30.02,NNE,30,0.0,0.0,85,0.00,,,0.00,Wunderground v.1.15,2013-01-15 04:52:00,
2013-01-14 20:54:00,31.0,27.0,30.02,NNE,30,0.0,0.0,85,0.00,,,0.00,Wunderground v.1.15,2013-01-15 04:54:00,
2013-01-14 20:56:00,32.1,27.8,30.02,NNE,30,0.0,0.0,84,0.00,,,0.00,Wunderground v.1.15,2013-01-15 04:56:00,
2013-01-14 20:58:00,30.9,27.2,30.02,NNE,30,0.0,0.0,86,0.00,,,0.00,Wunderground v.1.15,2013-01-15 04:58:00,
2013-01-14 21:00:00,30.7,27.0,30.02,NNE,30,0.0,0.0,86,0.00,,,0.00,Wunderground v.1.15,2013-01-15 05:00:00,
2013-01-14 21:02:00,30.7,27.0,30.02,NNE,30,0.0,0.0,86,0.00,,,0.00,Wunderground v.1.15,2013-01-15 05:02:00,
2013-01-14 21:04:00,30.6,26.9,30.02,NNE,30,0.0,0.0,86,0.00,,,0.00,Wunderground v.1.15,2013-01-15 05:04:00,
2013-01-14 21:06:00,30.6,26.9,30.02,NNE,30,0.0,0.0,86,0.00,,,0.00,Wunderground v.1.15,2013-01-15 05:06:00,
2013-01-14 21:08:00,30.4,26.7,30.02,NNE,30,0.0,0.0,86,0.00,,,0.00,Wunderground v.1.15,2013-01-15 05:08:00,
2013-01-14 21:10:00,30.3,26.6,30.02,NNE,30,0.0,0.0,86,0.00,,,0.00,Wunderground v.1.15,2013-01-15 05:10:00,
2013-01-14 21:12:00,30.3,26.6,30.02,NNE,30,0.0,0.0,86,0.00,,,0.00,Wunderground v.1.15,2013-01-15 05:12:00,
2013-01-14 21:14:00,30.1,26.4,30.02,NNE,30,0.0,0.0,86,0.00,,,0.00,Wunderground v.1.15,2013-01-15 05:14:00,
2013-01-14 21:16:00,30.3,26.9,30.02,NNE,30,0.0,0.0,87,0.00,,,0.00,Wunderground v.1.15,2013-01-15 05:16:00,
2013-01-14 21:18:00,30.3,26.9,30.02,NNE,30,0.0,0.0,87,0.00,,,0.00,Wunderground v.1.15,2013-01-15 05:18:00,
2013-01-14 21:20:00,30.3,26.9,30.02,NNE,30,0.0,0.0,87,0.00,,,0.00,Wunderground v.1.15,2013-01-15 05:20:00,
2013-01-14 21:22:00,30.3,26.9,30.02,NNE,30,0.0,0.0,87,0.00,,,0.00,Wunderground v.1.15,2013-01-15 05:22:00,
2013-01-14 21:24:00,30.3,26.9,30.02,NNE,30,0.0,0.0,87,0.00,,,0.00,Wunderground v.1.15,2013-01-15 05:24:00,
2013-01-14 21:26:00,30.3,26.9,30.02,NNE,30,0.0,0.0,87,0.00,,,0.00,Wunderground v.1.15,2013-01-15 05:26:00,
2013-01-14 21:28:00,30.3,26.9,30.02,NNE,30,0.0,0.0,87,0.00,,,0.00,Wunderground v.1.15,2013-01-15 05:28:00,
2013-01-14 21:30:00,30.3,26.9,30.02,NNE,30,0.0,0.0,87,0.00,,,0.00,Wunderground v.1.15,2013-01-15 05:30:00,
2013-01-14 21:32:00,30.3,27.2,30.02,NNE,30,0.0,0.0,88,0.00,,,0.00,Wunderground v.1.15,2013-01-15 05:32:00,
2013-01-14 21:34:00,30.3,27.2,30.02,NNE,30,0.0,0.0,88,0.00,,,0.00,Wunderground v.1.15,2013-01-15 05:34:00,
2013-01-14 21:36:00,30.3,27.2,30.02,NNE,30,0.0,0.0,88,0.00,,,0.00,Wunderground v.1.15,2013-01-15 05:36:00,
2013-01-14 21:38:00,30.1,27.0,30.02,NNE,30,0.0,0.0,88,0.00,,,0.00,Wunderground v.1.15,2013-01-15 05:38:00,
2013-01-14 21:40:00,30.1,27.0,30.02,NNE,30,0.0,0.0,88,0.00,,,0.00,Wunderground v.1.15,2013-01-15 05:40:00,
2013-01-14 21:42:00,30.1,27.0,30.02,NNE,30,0.0,0.0,88,0.00,,,0.00,Wunderground v.1.15,2013-01-15 05:42:00,
2013-01-14 21:44:00,30.1,27.0,30.02,NNE,30,0.0,0.0,88,0.00,,,0.00,Wunderground v.1.15,2013-01-15 05:44:00,
2013-01-14 21:46:00,30.1,27.0,30.02,NNE,30,0.0,0.0,88,0.00,,,0.00,Wunderground v.1.15,2013-01-15 05:46:00,
2013-01-14 21:48:00,30.0,26.9,30.02,NNE,30,0.0,0.0,88,0.00,,,0.00,Wunderground v.1.15,2013-01-15 05:48:00,
2013-01-14 21:50:00,30.0,26.9,30.02,NNE,30,0.0,0.0,88,0.00,,,0.00,Wunderground v.1.15,2013-01-15 05:50:00,
2013-01-14 21:52:00,30.0,26.9,30.02,NNE,30,0.0,0.0,88,0.00,,,0.00,Wunderground v.1.15,2013-01-15 05:52:00,
2013-01-14 21:54:00,30.1,27.0,30.02,NNE,30,0.0,0.0,88,0.00,,,0.00,Wunderground v.1.15,2013-01-15 05:54:00,
2013-01-14 21:56:00,30.1,27.3,30.02,NNE,30,0.0,0.0,89,0.00,,,0.00,Wunderground v.1.15,2013-01-15 05:56:00,
2013-01-14 21:58:00,30.1,27.3,30.02,NNE,30,0.0,0.0,89,0.00,,,0.00,Wunderground v.1.15,2013-01-15 05:58:00,
2013-01-14 22:00:00,30.1,27.3,30.02,NNE,30,0.0,0.0,89,0.00,,,0.00,Wunderground v.1.15,2013-01-15 06:00:00,
2013-01-14 22:02:00,30.1,27.3,30.02,NNE,30,0.0,0.0,89,0.00,,,0.00,Wunderground v.1.15,2013-01-15 06:02:00,
2013-01-14 22:04:00,30.1,27.3,30.02,NNE,30,0.0,0.0,89,0.00,,,0.00,Wunderground v.1.15,2013-01-15 06:04:00,
2013-01-14 22:06:00,30.1,27.3,30.02,NNE,30,0.0,0.0,89,0.00,,,0.00,Wunderground v.1.15,2013-01-15 06:06:00,
2013-01-14 22:08:00,30.1,27.3,30.02,NNE,30,0.0,0.0,89,0.00,,,0.00,Wunderground v.1.15,2013-01-15 06:08:00,
2013-01-14 22:10:00,30.0,27.2,30.02,NNE,30,0.0,0.0,89,0.00,,,0.00,Wunderground v.1.15,2013-01-15 06:10:00,
2013-01-14 22:12:00,30.0,27.2,30.03,NNE,30,0.0,0.0,89,0.00,,,0.00,Wunderground v.1.15,2013-01-15 06:12:00,
2013-01-14 22:14:00,30.0,27.2,30.03,NNE,30,0.0,0.0,89,0.00,,,0.00,Wunderground v.1.15,2013-01-15 06:14:00,
2013-01-14 22:16:00,30.0,27.2,30.03,NNE,30,0.0,0.0,89,0.00,,,0.00,Wunderground v.1.15,2013-01-15 06:16:00,
2013-01-14 22:18:00,29.8,27.0,30.03,NNE,30,0.0,0.0,89,0.00,,,0.00,Wunderground v.1.15,2013-01-15 06:18:00,
2013-01-14 22:20:00,29.8,27.0,30.03,NNE,30,0.0,0.0,89,0.00,,,0.00,Wunderground v.1.15,2013-01-15 06:20:00,
2013-01-14 22:22:00,29.8,27.0,30.03,NNE,30,0.0,0.0,89,0.00,,,0.00,Wunderground v.1.15,2013-01-15 06:22:00,
2013-01-14 22:24:00,29.7,26.9,30.03,NNE,30,0.0,0.0,89,0.00,,,0.00,Wunderground v.1.15,2013-01-15 06:24:00,
2013-01-14 22:26:00,29.5,26.7,30.02,NNE,30,0.0,0.0,89,0.00,,,0.00,Wunderground v.1.15,2013-01-15 06:26:00,
2013-01-14 22:28:00,29.5,26.7,30.03,NNE,30,0.0,0.0,89,0.00,,,0.00,Wunderground v.1.15,2013-01-15 06:28:00,
2013-01-14 22:30:00,29.5,26.7,30.03,NNE,30,0.0,0.0,89,0.00,,,0.00,Wunderground v.1.15,2013-01-15 06:30:00,
2013-01-14 22:32:00,29.5,26.7,30.03,NNE,30,0.0,0.0,89,0.00,,,0.00,Wunderground v.1.15,2013-01-15 06:32:00,
2013-01-14 22:34:00,29.5,26.7,30.03,NNE,30,0.0,0.0,89,0.00,,,0.00,Wunderground v.1.15,2013-01-15 06:34:00,
2013-01-14 22:36:00,29.5,26.7,30.03,NNE,30,0.0,0.0,89,0.00,,,0.00,Wunderground v.1.15,2013-01-15 06:36:00,
2013-01-14 22:38:00,29.5,26.7,30.03,NNE,30,0.0,0.0,89,0.00,,,0.00,Wunderground v.1.15,2013-01-15 06:38:00,
2013-01-14 22:40:00,29.5,26.7,30.03,NNE,30,0.0,0.0,89,0.00,,,0.00,Wunderground v.1.15,2013-01-15 06:40:00,
2013-01-14 22:42:00,29.5,26.7,30.03,NNE,30,0.0,0.0,89,0.00,,,0.00,Wunderground v.1.15,2013-01-15 06:42:00,
2013-01-14 22:44:00,29.5,26.7,30.03,NNE,30,0.0,0.0,89,0.00,,,0.00,Wunderground v.1.15,2013-01-15 06:44:00,
2013-01-14 22:50:00,29.7,26.9,30.03,NNE,30,0.0,0.0,89,0.00,,,0.00,Wunderground v.1.15,2013-01-15 06:50:00,
2013-01-14 22:54:00,29.7,26.9,30.04,NNE,30,0.0,0.0,89,0.00,,,0.00,Wunderground v.1.15,2013-01-15 06:54:00,
2013-01-14 22:56:00,29.5,26.7,30.04,NNE,30,0.0,0.0,89,0.00,,,0.00,Wunderground v.1.15,2013-01-15 06:56:00,
2013-01-14 22:58:00,29.5,26.7,30.04,NNE,30,0.0,0.0,89,0.00,,,0.00,Wunderground v.1.15,2013-01-15 06:58:00,
2013-01-14 23:02:00,29.4,26.6,30.04,NNE,30,0.0,0.0,89,0.00,,,0.00,Wunderground v.1.15,2013-01-15 07:02:00,
2013-01-14 23:08:00,29.3,26.5,30.05,NNE,30,0.0,0.0,89,0.00,,,0.00,Wunderground v.1.15,2013-01-15 07:08:00,
2013-01-14 23:10:00,29.1,26.3,30.05,NNE,30,0.0,0.0,89,0.00,,,0.00,Wunderground v.1.15,2013-01-15 07:10:00,
2013-01-14 23:14:00,28.8,26.0,30.05,NNE,30,0.0,1.0,89,0.00,,,0.00,Wunderground v.1.15,2013-01-15 07:14:00,
2013-01-14 23:32:00,29.5,26.7,30.03,NNE,30,0.0,0.0,89,0.00,,,0.00,Wunderground v.1.15,2013-01-15 07:32:00,
2013-01-14 23:38:00,29.7,26.9,30.03,NNE,30,0.0,0.0,89,0.00,,,0.00,Wunderground v.1.15,2013-01-15 07:38:00,
2013-01-14 23:46:00,29.5,26.7,30.04,NNE,30,0.0,0.0,89,0.00,,,0.00,Wunderground v.1.15,2013-01-15 07:46:00,
2013-01-14 23:52:00,29.4,26.6,30.04,NNE,30,0.0,0.0,89,0.00,,,0.00,Wunderground v.1.15,2013-01-15 07:52:00,
2013-01-14 23:58:00,29.0,26.2,30.05,NNE,30,0.0,1.0,89,0.00,,,0.00,Wunderground v.1.15,2013-01-15 07:58:00,